Weather History for KPHL - July, 2013

Change the Weather History Date:

Sunday, July 28, 2013

  Actual Average Record
Temperature  
Mean Temperature 77 °F 78 °F  
Max Temperature 84 °F 87 °F 100 °F (1941)
Min Temperature 69 °F 70 °F 53 °F (1962)
Degree Days  
Heating Degree Days 0 0  
Month to date heating degree days 0 0  
Since 1 June heating degree days 0 11  
Since 1 July heating degree days 0 0  
Cooling Degree Days 12 13  
Month to date cooling degree days 462 361  
Year to date cooling degree days 880 710  
Since 1 June cooling degree days 756 619  
Growing Degree Days 26 (Base 50)    
Moisture  
Dew Point 68 °F    
Average Humidity 81    
Maximum Humidity 93    
Minimum Humidity 69    
Precipitation  
Precipitation 8.02 in 0.14 in 8.02 in (2013)
Month to date precipitation 13.00 3.93  
Year to date precipitation 36.09 24.10  
Snow  
Snow 0.00 in 0.00 in 0.00 in (1870)
Month to date snowfall 0.0 0.0  
Since 1 June snowfall 0.0 0.0  
Since 1 July snowfall 0.0 0.0  
Snow Depth 0.00 in    
Sea Level Pressure  
Sea Level Pressure 29.95 in    
Wind  
Wind Speed 6 mph (SSE)    
Max Wind Speed 36 mph    
Max Gust Speed 47 mph    
Visibility 6 miles    
Events Fog , Rain , Thunderstorm    
T = Trace of Precipitation, MM = Missing Value Source: NWS Daily Summary

Daily Weather History Graph

Daily Weather History Graph

Search for Another Location

Airport or City:

Trip Planner

Search our weather history database for the weather conditions in past years. The results will help you decide how hot, cold, wet, or windy it might be!

Date:

Astronomy

Jul. 28, 2013 Rise Set
Actual Time 5:56 AM EDT 8:18 PM EDT
Civil Twilight 5:25 AM EDT 8:48 PM EDT
Nautical Twilight 4:47 AM EDT 9:26 PM EDT
Astronomical Twilight 4:05 AM EDT 10:07 PM EDT
Moon 11:39 PM EDT (7/28) 12:35 PM EDT (7/28)
Length of Visible Light 15h 23m
Length of Day
14h 21m
Waning Gibbous, 61% of the Moon is Illuminated
Jul 28
Waning Gibbous
Jul 29
Last Quarter
Aug 6
New
Aug 14
First Quarter
Aug 20
Full

Hourly Weather History & Observations

Time (EDT) Temp. Heat Index Dew Point Humidity Pressure Visibility Wind Dir Wind Speed Gust Speed Precip Events Conditions
12:54 AM 72.0 °F - 64.9 °F 78% 29.97 in 10.0 mi South 3.5 mph - N/A   Mostly Cloudy
1:54 AM 72.0 °F - 66.0 °F 81% 29.96 in 10.0 mi SSE 5.8 mph - N/A   Mostly Cloudy
2:54 AM 72.0 °F - 64.9 °F 78% 29.96 in 10.0 mi South 4.6 mph - N/A   Mostly Cloudy
3:54 AM 72.0 °F - 64.9 °F 78% 29.95 in 10.0 mi South 5.8 mph - N/A   Overcast
4:54 AM 72.0 °F - 64.9 °F 78% 29.96 in 10.0 mi South 5.8 mph - N/A   Overcast
5:54 AM 72.0 °F - 66.0 °F 81% 29.96 in 10.0 mi SE 4.6 mph - N/A   Overcast
6:54 AM 73.0 °F - 64.9 °F 76% 29.96 in 10.0 mi SSE 4.6 mph - 0.00 in   Overcast
7:54 AM 73.0 °F - 64.9 °F 76% 29.96 in 10.0 mi South 5.8 mph - 0.00 in   Overcast
8:54 AM 75.0 °F - 64.9 °F 71% 29.95 in 10.0 mi SSE 5.8 mph - N/A   Overcast
9:54 AM 77.0 °F - 66.9 °F 71% 29.94 in 10.0 mi South 6.9 mph - N/A   Overcast
10:54 AM 78.1 °F - 69.1 °F 74% 29.94 in 10.0 mi SSE 6.9 mph - N/A   Overcast
11:42 AM 78.8 °F - 69.8 °F 74% 29.95 in 10.0 mi South 6.9 mph - N/A   Overcast
11:54 AM 79.0 °F - 70.0 °F 74% 29.95 in 10.0 mi South 5.8 mph - N/A   Overcast
12:54 PM 82.0 °F 86.3 °F 71.1 °F 69% 29.94 in 10.0 mi South 9.2 mph - N/A   Overcast
1:54 PM 82.0 °F 86.3 °F 71.1 °F 69% 29.92 in 10.0 mi SSE 10.4 mph - N/A   Overcast
2:14 PM 82.4 °F 86.3 °F 69.8 °F 66% 29.91 in 10.0 mi SSE 9.2 mph - 0.00 in   Mostly Cloudy
2:54 PM 82.0 °F 85.9 °F 70.0 °F 67% 29.90 in 10.0 mi South 12.7 mph - 0.00 in Rain , Thunderstorm Light Thunderstorms and Rain
3:04 PM 80.6 °F 84.6 °F 71.6 °F 74% 29.90 in 6.0 mi South 9.2 mph - 0.01 in Rain , Thunderstorm Light Thunderstorms and Rain
3:17 PM 77.0 °F - 71.6 °F 83% 29.91 in 5.0 mi SW 10.4 mph - 0.05 in Rain Rain
3:27 PM 75.2 °F - 73.4 °F 94% 29.93 in 2.5 mi West 20.7 mph 26.5 mph 0.16 in Rain , Thunderstorm Heavy Thunderstorms and Rain
3:31 PM 73.4 °F - 69.8 °F 88% 29.95 in 0.8 mi WNW 20.7 mph 28.8 mph 0.30 in Rain , Thunderstorm Heavy Thunderstorms and Rain
3:35 PM 71.6 °F - 66.2 °F 83% 29.93 in 0.5 mi NNW 18.4 mph 40.3 mph 0.69 in Fog , Rain , Thunderstorm Heavy Thunderstorms and Rain
3:39 PM 71.6 °F - 66.2 °F 83% 29.94 in 0.5 mi West 35.7 mph 47.2 mph 1.25 in Fog , Rain , Thunderstorm Heavy Thunderstorms and Rain
3:41 PM 71.6 °F - 66.2 °F 83% 29.94 in 0.8 mi WNW 18.4 mph 47.2 mph 1.42 in Rain , Thunderstorm Heavy Thunderstorms and Rain
3:54 PM 70.0 °F - 66.0 °F 87% 29.94 in 0.8 mi Variable 4.6 mph - 2.56 in Rain , Thunderstorm Heavy Thunderstorms and Rain
4:09 PM 69.8 °F - 68.0 °F 94% 29.93 in 1.5 mi South 3.5 mph - 0.92 in Rain , Thunderstorm Thunderstorms and Rain
4:23 PM 71.6 °F - 68.0 °F 88% 29.93 in 6.0 mi South 5.8 mph - 1.30 in Rain Light Rain
4:29 PM 71.6 °F - 69.8 °F 94% 29.94 in 3.0 mi South 6.9 mph - 1.33 in Rain Rain
4:54 PM 71.1 °F - 68.0 °F 90% 29.94 in 3.0 mi Calm Calm - 1.82 in Rain Rain
4:59 PM 71.6 °F - 68.0 °F 88% 29.93 in 0.8 mi Variable 3.5 mph - 0.21 in Rain Heavy Rain
5:24 PM 71.6 °F - 69.8 °F 94% 29.93 in 0.5 mi Calm Calm - 0.92 in Fog , Rain Heavy Rain
5:37 PM 71.6 °F - 69.8 °F 94% 29.93 in 1.0 mi Calm Calm - 1.39 in Rain Heavy Rain
5:46 PM 71.6 °F - 69.8 °F 94% 29.93 in 2.0 mi East 6.9 mph - 1.51 in Rain Rain
5:54 PM 71.1 °F - 69.1 °F 93% 29.94 in 2.0 mi East 10.4 mph - 1.57 in Rain Rain
6:27 PM 69.8 °F - 66.2 °F 88% 29.94 in 0.5 mi SE 21.9 mph 26.5 mph 0.51 in Fog , Rain Heavy Rain
6:44 PM 69.8 °F - 66.2 °F 88% 29.95 in 1.0 mi East 8.1 mph - 1.32 in Rain Rain
6:54 PM 70.0 °F - 66.9 °F 90% 29.94 in 1.0 mi East 8.1 mph - 1.40 in Rain Rain
7:01 PM 69.8 °F - 66.2 °F 88% 29.94 in 8.0 mi East 12.7 mph - 0.00 in   Mostly Cloudy
7:18 PM 69.8 °F - 66.2 °F 88% 29.95 in 10.0 mi East 6.9 mph - 0.00 in   Mostly Cloudy
7:41 PM 69.8 °F - 66.2 °F 88% 29.96 in 6.0 mi East 4.6 mph - 0.00 in Rain Light Rain
7:54 PM 70.0 °F - 66.9 °F 90% 29.96 in 6.0 mi East 4.6 mph - 0.03 in Rain Light Rain
8:11 PM 69.8 °F - 66.2 °F 88% 29.97 in 10.0 mi Calm Calm - 0.01 in Rain Light Rain
8:44 PM 69.8 °F - 66.2 °F 88% 29.96 in 3.0 mi North 6.9 mph - 0.25 in Rain Rain
8:54 PM 70.0 °F - 66.9 °F 90% 29.97 in 3.0 mi NNW 5.8 mph - 0.34 in Rain Rain
8:56 PM 69.8 °F - 66.2 °F 88% 29.97 in 1.8 mi North 5.8 mph - 0.01 in Rain Rain
9:03 PM 69.8 °F - 66.2 °F 88% 29.97 in 3.0 mi East 4.6 mph - 0.10 in Rain Heavy Rain
9:17 PM 69.8 °F - 66.2 °F 88% 29.98 in 3.0 mi East 9.2 mph - 0.24 in Rain , Thunderstorm Thunderstorms and Rain
9:34 PM 71.6 °F - 68.0 °F 88% 29.97 in 10.0 mi East 13.8 mph - 0.27 in Rain , Thunderstorm Light Thunderstorms and Rain
9:47 PM 69.8 °F - 66.2 °F 88% 29.98 in 10.0 mi East 11.5 mph - 0.27 in   Mostly Cloudy
9:54 PM 70.0 °F - 66.9 °F 90% 29.99 in 10.0 mi East 11.5 mph - 0.27 in   Mostly Cloudy
10:42 PM 71.6 °F - 66.2 °F 83% 29.98 in 10.0 mi SE 5.8 mph - N/A   Mostly Cloudy
10:54 PM 71.1 °F - 66.9 °F 87% 29.98 in 10.0 mi SE 5.8 mph - N/A   Mostly Cloudy
11:54 PM 70.0 °F - 66.9 °F 90% 29.97 in 10.0 mi Calm Calm - 0.01 in Rain Light Rain